Regional Weather Roundup
Issued by NWS Jackson, KY

Home | Current Version | Previous Version | Graphics & Text | Print | Product List | Glossary On
Versions: 1 2 3 4 5 6 7 8 9 10 11 12 13 14 15 16 17 18 19 20 21 22 23 24 25 26 27 28
000
ASUS43 KJKL 210510
RWRJKL

EAST KENTUCKY HOURLY WEATHER ROUNDUP
NATIONAL WEATHER SERVICE JACKSON KY
100 AM EDT MON MAY 21 2018

NOTE: "FAIR" INDICATES FEW OR NO CLOUDS BELOW 12,000 FEET WITH
NO SIGNIFICANT WEATHER AND/OR OBSTRUCTIONS TO VISIBILITY.

* THESE REPORTS ARE NOT UNDER NWS QUALITY CONTROL AND MAY NOT
  REPORT WEATHER SUCH AS PRECIPITATION AND FOG.

KYZ079-080-083-085-087-088-110-112-115-119-120-210600
...EASTERN KENTUCKY...

CITY           SKY/WX    TMP DP  RH WIND       PRES   REMARKS
JACKSON          N/A     73  64  73 CALM      30.13F
LONDON           N/A     69  67  93 CALM      30.14F
SOMERSET*        N/A     70  63  78 MISG      30.15S
MONTICELLO*      N/A     67  64  90 NE8       30.15F
WILLIAMSBURG*    N/A     66  66 100 CALM      30.15F
MIDDLESBORO*     N/A     65  65 100 CALM      30.16F
HARLAN APT*      N/A     65  65  98 CALM      30.17F
PIKE CO APT*     N/A     70  70 100 CALM      30.14F
BIG SANDY APT*   N/A     70  70 100 CALM      30.13S
ASHLAND*         N/A     71  66  84 CALM      30.10F
$$

KYZ035-036-041-042-044-050-067-078-099-210600
...CENTRAL KENTUCKY...

CITY           SKY/WX    TMP DP  RH WIND       PRES   REMARKS
MT STERLING*     N/A     68  66  94 SW3       30.13S
FLEMING/MASON*   N/A     68  65  90 CALM      30.12F
DANVILLE*        N/A     70  61  73 CALM      30.13F
LEXINGTON        N/A     73  65  75 SW8       30.12S
FRANKFORT        N/A     72  65  78 SW6       30.09F
LOUISVILLE     CLOUDY    77  66  68 SW8       30.09R
LEBANON*         N/A     70  63  78 SE7       30.11F
GLASGOW*         N/A     65  63  92 CALM      30.11S
BOWLING GREEN    N/A     69  68  96 W12       30.10F
$$

KYZ091>093-OHZ055-061-077-WVZ005-015-034-035-042-210600
...SOUTHERN OHIO/WEST VIRGINIA...

CITY           SKY/WX    TMP DP  RH WIND       PRES   REMARKS
COVINGTON      MOCLDY    69  63  81 SE3       30.10S
COLUMBUS       CLOUDY    65  58  78 NE3       30.14R
DAYTON         MOCLDY    64  62  93 NE6       30.15S
WILMINGTON       N/A     66  64  93 NE7       30.12S
HUNTINGTON       N/A     71  66  84 CALM      30.10S
CHARLESTON       N/A     67  67 100 CALM      30.10S
PINEVILLE*       N/A     64  63  95 MISG      30.20F FOG
BECKLEY          N/A     63  60  90 S8        30.18F
BLUEFIELD        N/A     65  61  87 W6        30.22F
LOGAN CO APT*    N/A     68  66  94 CALM      30.13F
$$

VAZ002-007-008-TNZ017-027-036-066-071-210600
...SOUTHWEST VIRGINIA/EAST TENNESSEE...

CITY           SKY/WX    TMP DP  RH WIND       PRES   REMARKS
WISE*            N/A     64  63  94 CALM      30.23S
JONESVILLE*      N/A     64  64 100 CALM      30.19S
ABINGDON*      MOCLDY    69  68  97 CALM      30.20S
BRISTOL          N/A     66  66 100 CALM      30.17S
MORRISTOWN*    CLEAR     70  66  88 CALM      30.15S
SEVIERVILLE*   CLEAR     70  68  94 CALM      30.14F
KNOXVILLE      MOCLDY    73  70  90 W6        30.14S
LAFOLLETTE*    PTCLDY    66  64  94 CALM      30.18F
OAK RIDGE        N/A     72  71  97 CALM      30.16S
CROSSVILLE       N/A     66  64  93 CALM      30.20F FOG
NASHVILLE      MOCLDY    69  66  90 NE3       30.13F
$$

...KEY TO REMARKS...
VSB - VISIBILITY IN MILES
WCI - WIND CHILL INDEX
HX  - HEAT INDEX

$$




USA.gov is the U.S. government's official web portal to all federal, state and local government web resources and services.